Flag for Australia Weather past 2 weeks in Cairns, Queensland, Australia

Now
79 °F

Passing clouds.


Feels Like: 79 °F
Forecast: 58 / 81 °F
Wind: 13 mph from Northeast

Location: Cairns Airport

Current Time: Aug 3, 2015 at 3:23:27 PM

Latest Report: Aug 3, 2015 at 2:30 PM


Visibility: N/A

Pressure: 30.01 "Hg

Humidity: 45%

Dew point: 55 °F

Location of CairnsLocation

Historic Weather in Cairns — Graph

°F

Cairns temperature yesterday

Maximum temperature yesterday: 81 °F (at 12:30 PM)
Minimum temperature yesterday: 68 °F (at 12:00 AM)
Average temperature yesterday: 73 °F

Past Weeks' High & Low Weather Summary

 TemperatureHumidityPressure
High82 °F (Jul 24, 1:00 PM)94% (Jul 21, 12:30 AM)30.18 "Hg (Jul 21, 12:30 AM)
Low64 °F (Jul 21, 12:30 AM)39% (Aug 3, 1:30 PM)30.01 "Hg (Jul 24, 2:30 PM)
Average72 °F76%30.09 "Hg
* Reported Jul 19 1:00 PM — Aug 3 1:30 PM, Cairns, Weather by CustomWeather, © 2015

Note: Actual official high and low records may vary slightly from our data, if they occured in-between our weather recording intervals... More about our weather records

Advertising

Cairns weather history for previous 24 hours

 ConditionsComfort  
Time TempWeatherWind HumidityBarometerVisibility
1:30 PM
Mon, Aug 3
81 °FPassing clouds.8 mph39%30.01 "HgN/A
1:00 PM79 °FPassing clouds.7 mph45%30.04 "HgN/A
12:30 PM79 °FPassing clouds.6 mph45%30.04 "HgN/A
12:00 PM79 °FPassing clouds.9 mph42%30.07 "HgN/A
11:30 AM77 °FPassing clouds.13 mph51%30.07 "HgN/A
11:00 AM79 °FPassing clouds.12 mph48%30.09 "HgN/A
10:30 AM77 °FPassing clouds.10 mph51%30.09 "HgN/A
10:00 AM77 °FPassing clouds.12 mph54%30.09 "HgN/A
9:30 AM75 °FPassing clouds.10 mph57%30.09 "HgN/A
9:00 AM73 °FPassing clouds.12 mph69%30.09 "HgN/A
8:30 AM72 °FPassing clouds.9 mph73%30.09 "HgN/A
8:00 AM68 °FPassing clouds.10 mph78%30.07 "HgN/A
7:30 AM66 °FPassing clouds.2 mph83%30.07 "HgN/A
6:30 AM64 °FPassing clouds.13 mph83%30.07 "HgN/A
6:00 AM64 °FPassing clouds.10 mph83%30.07 "HgN/A
5:30 AM64 °FPassing clouds.8 mph88%30.04 "HgN/A
5:00 AM64 °FPassing clouds.9 mph88%30.04 "HgN/A
4:30 AM64 °FPassing clouds.10 mph88%30.04 "HgN/A
4:00 AM64 °FPassing clouds.12 mph88%30.04 "HgN/A
3:30 AM66 °FPassing clouds.7 mph83%30.04 "HgN/A
3:00 AM64 °FPassing clouds.9 mph88%30.04 "HgN/A
2:30 AM66 °FPassing clouds.7 mph83%30.04 "HgN/A
2:00 AM66 °FPassing clouds.8 mph83%30.07 "HgN/A
1:30 AM66 °FPassing clouds.9 mph83%30.07 "HgN/A
1:00 AM68 °FPassing clouds.7 mph78%30.07 "HgN/A
12:30 AM68 °FPassing clouds.9 mph78%30.07 "HgN/A
12:00 AM68 °FPassing clouds.9 mph78%30.09 "HgN/A
11:30 PM
Sun, Aug 2
70 °FPassing clouds.10 mph78%30.09 "HgN/A
11:00 PM68 °FPassing clouds.8 mph83%30.09 "HgN/A
10:30 PM68 °FPassing clouds.10 mph88%30.09 "HgN/A
10:00 PM70 °FPassing clouds.9 mph78%30.09 "HgN/A
9:30 PM70 °FPassing clouds.10 mph78%30.09 "HgN/A
9:00 PM70 °FPassing clouds.9 mph78%30.09 "HgN/A
8:30 PM72 °FPassing clouds.7 mph69%30.09 "HgN/A
8:00 PM72 °FPassing clouds.7 mph73%30.07 "HgN/A
7:30 PM72 °FPassing clouds.7 mph73%30.07 "HgN/A
7:00 PM72 °FPassing clouds.6 mph73%30.07 "HgN/A
6:30 PM72 °FPassing clouds.5 mph69%30.04 "HgN/A
6:00 PM73 °FPassing clouds.5 mph65%30.04 "HgN/A
5:30 PM75 °FPassing clouds.14 mph61%30.04 "HgN/A
5:00 PM77 °FPassing clouds.13 mph54%30.04 "HgN/A
4:30 PM79 °FPassing clouds.12 mph51%30.04 "HgN/A
4:00 PM79 °FPassing clouds.14 mph51%30.04 "HgN/A
3:30 PM79 °FPassing clouds.13 mph51%30.04 "HgN/A
3:00 PM77 °FScattered clouds.12 mph57%30.04 "HgN/A
Weather by CustomWeather, © 2015

See weather overviewHow to use our weather pages